Home > Weather > Mingachevir > Past weeks

Flag for Azerbaijan Weather for the Past 2 Weeks in Mingachevir, Azerbaijan

Now
55 °F

Passing clouds.


Feels Like: 55 °F
Forecast: 52 / 73 °F
Wind: 5 mph from East

Location: Gyanca Airport

Current Time: May 3, 2016 at 1:48:58 AM

Latest Report: May 3, 2016 at 1:00 AM


Visibility: 4 mi

Pressure: 30.07 "Hg

Humidity: 94%

Dew Point: 54 °F

Location of MingachevirLocation

Historic Weather in Mingachevir — Graph

°F

Mingachevir Temperature Yesterday

Maximum temperature yesterday: 68 °F (at 12:30 PM)
Minimum temperature yesterday: 54 °F (at 1:30 AM)
Average temperature yesterday: 60 °F

High & Low Weather Summary for the Past Weeks

 TemperatureHumidityPressure
High86 °F (Apr 26, 4:00 PM)100% (Apr 23, 9:00 AM)30.30 "Hg (Apr 23, 9:00 AM)
Low45 °F (Apr 23, 12:30 AM)20% (Apr 22, 6:00 PM)29.65 "Hg (Apr 25, 3:30 PM)
Average63 °F61%29.97 "Hg
* Reported Midnight between Apr 17 and Apr 18 — May 3 12:30 AM, Mingachevir, Weather by CustomWeather, © 2016

Note: Actual official high and low records may vary slightly from our data, if they occured in-between our weather recording intervals... More about our weather records

Advertising

Mingachevir Weather History for the Previous 24 Hours

Scroll right to see more
 ConditionsComfort  
Time TempWeatherWind HumidityBarometerVisibility
12:30 AM
Tue, May 3
55 °FPassing clouds.6 mph94%30.07 "Hg4 mi
12:00 AM55 °FPassing clouds.8 mph94%30.07 "Hg4 mi
11:30 PM
Mon, May 2
55 °FPassing clouds.8 mph94%30.07 "Hg4 mi
11:00 PM55 °FPassing clouds.13 mph94%30.07 "Hg4 mi
10:30 PM55 °FPassing clouds.12 mph94%30.09 "HgN/A
10:00 PM55 °FPassing clouds.10 mph94%30.09 "HgN/A
9:30 PM55 °FPassing clouds.10 mph94%30.09 "HgN/A
9:00 PM57 °FPassing clouds.N/A88%30.07 "Hg99 mi
8:30 PM57 °FScattered clouds.15 mph88%30.07 "HgN/A
7:30 PM61 °FScattered clouds.16 mph77%30.07 "HgN/A
7:00 PM63 °FScattered clouds.16 mph73%30.04 "HgN/A
6:00 PM64 °FScattered clouds.17 mph73%30.04 "HgN/A
5:30 PM64 °FScattered clouds.17 mph73%30.04 "HgN/A
5:00 PM64 °FBroken clouds.15 mph64%30.01 "HgN/A
4:30 PM66 °FBroken clouds.15 mph60%30.01 "HgN/A
4:00 PM68 °FBroken clouds.13 mph53%30.01 "HgN/A
3:30 PM68 °FBroken clouds.8 mph46%N/AN/A
3:00 PM68 °FBroken clouds.9 mph46%30.04 "HgN/A
2:30 PM66 °FBroken clouds.6 mph52%30.04 "HgN/A
2:00 PM66 °FBroken clouds.3 mph46%30.04 "HgN/A
1:30 PM66 °FBroken clouds.5 mph46%30.04 "HgN/A
1:00 PM66 °FBroken clouds.5 mph49%30.04 "HgN/A
12:30 PM68 °FScattered clouds.6 mph46%30.04 "HgN/A
11:30 AM66 °FScattered clouds.7 mph46%30.07 "HgN/A
11:00 AM66 °FScattered clouds.9 mph46%30.07 "HgN/A
10:30 AM64 °FScattered clouds.10 mph49%30.07 "HgN/A
9:00 AM61 °FPartly sunny.14 mph55%30.07 "HgN/A
8:00 AM59 °FScattered clouds.8 mph63%30.07 "HgN/A
7:30 AM57 °FPartly sunny.3 mph67%30.07 "HgN/A
6:30 AM54 °FPassing clouds.3 mph77%30.04 "HgN/A
6:00 AM54 °FPassing clouds.No wind72%30.04 "HgN/A
5:30 AM55 °FPassing clouds.2 mph67%30.04 "HgN/A
5:00 AM55 °FPassing clouds.5 mph67%30.04 "HgN/A
4:00 AM55 °FPassing clouds.6 mph67%30.04 "HgN/A
3:30 AM55 °FPassing clouds.7 mph67%30.04 "HgN/A
3:00 AM55 °FPassing clouds.7 mph67%30.04 "HgN/A
2:00 AM57 °FPassing clouds.7 mph59%30.04 "HgN/A
1:30 AM54 °FPassing clouds.6 mph72%30.04 "HgN/A
1:00 AM55 °FPassing clouds.6 mph67%30.04 "HgN/A
Weather by CustomWeather, © 2016

See weather overviewHow to use our weather pages